[[{"header":{"parameterUnit":"m.s-1","parameterCategory":1,"la1":30.2991,"la2":30.254,"lo1":-89.0895,"lo2":-89.0444,"dy":0.0017,"dx":0.0017,"nx":28,"ny":28,"refTime":"2024-05-08T09:00:00:Z","depth":0,"parameterNumber":2,"parameterNumberName":"U-component_of_WINDS"},"data":[0,0,0,0,0,0,0,0,0,0,0,0,0,0,0,0,0,0,0,0,0,0,0,0,0,0,0,0,0,0,0,0,0,0,0,0,0,0,0,0,0,0,0,0,0,0,0,0,0,0,0,0,0,0,0,0,0,0,1.4144,1.4145,0,1.4295,1.4296,1.4298,1.4324,1.4322,1.4321,1.432,1.4478,1.4483,1.4488,0,0,0,0,0,0,0,0,0,0,0,0,0,1.3879,1.3883,1.4143,1.4145,1.4147,1.4294,1.4296,1.4299,1.4324,1.4322,1.4321,1.4319,1.4476,1.4482,1.4489,0,0,0,0,0,0,0,0,0,0,0,0,0,1.4008,1.3885,1.4143,1.4178,1.4182,1.4294,1.4297,1.4299,1.4324,1.4322,1.432,1.4319,1.4474,1.4482,1.449,1.4579,0,0,1.4514,1.4518,0,0,0,0,0,0,0,0,1.4001,1.4018,1.4171,1.4175,1.4181,1.4288,1.4261,1.4393,1.4325,1.427,1.432,1.4318,1.4416,1.4429,1.4462,1.4586,1.4593,1.4515,1.452,1.4524,1.4526,0,0,0,0,0,0,0,1.3992,1.4012,1.4203,1.4173,1.4179,1.4186,1.4202,1.4286,1.4353,1.4275,1.4277,1.4295,1.4419,1.4454,1.4466,1.4595,1.4515,1.4522,1.4527,1.453,1.4799,1.4801,0,0,0,0,0,0,1.3976,1.4004,1.4199,1.4208,1.4084,1.4192,1.4211,1.4256,1.4352,1.4364,1.4296,1.4295,1.4441,1.4456,1.4471,1.4581,1.4523,1.4531,1.4536,1.4797,1.4799,1.4802,0,0,0,0,0,0,1.397,1.3993,1.4192,1.4107,1.4132,1.4199,1.425,1.426,1.4295,1.4368,1.438,1.432,1.444,1.446,1.4551,1.4587,1.4535,1.4542,1.4794,1.4797,1.4801,1.4802,0,0,0,0,0,0,1.3963,1.3991,1.4025,1.4107,1.4137,1.4269,1.4252,1.4264,1.4308,1.4309,1.4393,1.4405,1.444,1.4539,1.4559,1.4597,1.4548,1.4791,1.4796,1.48,1.4799,1.4805,1.481,0,0,0,0,0,1.3953,1.402,1.4027,1.405,1.4181,1.4271,1.4288,1.4327,1.4311,1.4346,1.4393,1.4402,1.458,1.4548,1.4571,1.4612,1.4789,1.4794,1.4799,1.4796,1.4804,1.481,0,0,0,0,0,0,1.3943,1.4032,1.404,1.4136,1.4195,1.4275,1.4321,1.4333,1.44,1.4397,1.4443,1.4461,1.455,1.4591,1.4554,1.4703,1.4683,1.4693,1.4673,1.4681,1.4686,1.4675,1.4555,0,0,0,0,0,1.3951,1.4016,1.4091,1.4168,1.4198,1.4254,1.4295,1.4319,1.4383,1.4409,1.4462,1.4525,1.4595,1.464,1.4708,1.4805,1.4823,1.4844,1.485,1.4854,1.4862,1.4915,1.4925,1.4819,1.4819,1.4818,0,0,1.397,1.4027,1.4065,1.4168,1.4217,1.4284,1.4275,1.4347,1.4397,1.442,1.4509,1.455,1.4624,1.4717,1.4761,1.4754,1.4895,1.486,1.4863,1.4869,1.4921,1.4931,1.494,1.4822,1.4821,1.4821,0,0,1.4038,1.4088,1.4157,1.4206,1.428,1.4317,1.4333,1.4411,1.4439,1.4529,1.4547,1.4608,1.4728,1.4779,1.482,1.4906,1.4917,1.4927,1.4956,1.5008,1.5016,1.5024,1.5054,1.5064,1.4935,1.4935,1.4935,0,1.4052,1.4153,1.4191,1.4262,1.4306,1.4328,1.4399,1.4445,1.4538,1.4568,1.4558,1.4708,1.4759,1.4864,1.4885,1.4918,1.4938,1.4918,1.5011,1.502,1.5027,1.5057,1.5068,1.4936,1.4936,1.4936,1.4936,0,1.4167,1.4236,1.4284,1.4371,1.4421,1.4491,1.454,1.4586,1.4605,1.4643,1.4734,1.4795,1.4876,1.4903,1.4923,1.5011,1.5004,1.5002,1.4983,1.5037,1.5066,1.5077,1.4937,1.4937,1.4936,1.4936,0,0,1.4234,1.434,1.4357,1.4396,1.4479,1.4534,1.4605,1.4683,1.4721,1.4784,1.4845,1.4945,1.4943,1.499,1.5016,1.5061,1.5125,1.5054,1.5056,1.5065,1.5225,1.5226,1.5238,1.5132,1.5135,1.5136,1.5219,0,1.4311,1.4438,1.4473,1.458,1.4645,1.4667,1.4728,1.4786,1.4823,1.4884,1.4925,1.4995,1.4987,1.5016,1.5061,1.5107,1.5157,1.5102,1.519,1.5192,1.5171,1.5253,1.5255,1.533,1.523,1.5232,1.5234,0,1.4419,1.4483,1.4596,1.4669,1.4698,1.4752,1.4826,1.4884,1.4949,1.4973,1.5025,1.5047,1.5122,1.5098,1.5203,1.5164,1.5202,1.523,1.5234,1.5244,1.5216,1.5265,1.5355,1.5366,1.5252,1.525,1.5249,0,1.4456,1.457,1.4652,1.4685,1.4773,1.4811,1.485,1.4913,1.4957,1.5022,1.5051,1.5124,1.5164,1.522,1.5261,1.524,1.5361,1.5342,1.5384,1.5382,1.5408,1.5406,1.5505,1.5433,1.5433,1.5432,1.5432,0,1.4539,1.4607,1.4669,1.472,1.4797,1.4837,1.4912,1.4952,1.5008,1.5067,1.5091,1.5146,1.5196,1.5258,1.5291,1.5372,1.539,1.5411,1.5419,1.5409,1.5406,1.5435,1.5431,1.5435,1.5435,1.5434,1.5434,0,1.4593,1.4638,1.4728,1.4803,1.4824,1.4877,1.4942,1.4992,1.5029,1.5103,1.5123,1.5182,1.5256,1.5302,1.5396,1.5418,1.5507,1.5513,1.5484,1.5488,1.5527,1.5522,1.5647,1.5666,1.5581,1.5582,1.5583,0,1.4643,1.4696,1.4776,1.4817,1.4855,1.492,1.4965,1.5006,1.5052,1.513,1.5171,1.5246,1.5308,1.5425,1.5476,1.5548,1.5556,1.5595,1.5568,1.5556,1.5557,1.5553,1.5558,1.56,1.5601,1.5601,1.5602,0,1.4727,1.4746,1.4809,1.488,1.4932,1.499,1.5047,1.5079,1.5131,1.5181,1.5256,1.5304,1.5399,1.5473,1.5549,1.559,1.5605,1.561,1.5623,1.5614,1.5595,1.5605,1.5496,1.5607,1.5606,1.5606,1.5606,1.5605,1.4781,1.4829,1.4892,1.4961,1.5008,1.5061,1.5112,1.5155,1.5217,1.5297,1.5318,1.5396,1.546,1.5564,1.5606,1.5668,1.5663,1.5683,1.5688,1.5692,1.5692,1.5584,1.5682,1.5682,1.5682,1.5682,1.5682,0,1.4866,1.4908,1.4971,1.505,1.5104,1.5111,1.5176,1.5221,1.5289,1.5347,1.5407,1.5493,1.5564,1.5621,1.5695,1.5734,1.5742,1.5752,1.5749,1.5758,1.5693,1.5674,1.5743,1.5743,1.5743,1.5743,1.5743,1.5743,1.4917,1.4997,1.5023,1.5127,1.5169,1.5245,1.528,1.5329,1.5376,1.547,1.5529,1.5565,1.5623,1.57,1.5767,1.5781,1.5808,1.5816,1.5832,1.577,1.5763,1.5757,1.5739,1.5821,1.5821,1.5892,1.5893,1.5893]},{"header":{"parameterUnit":"m.s-1","parameterCategory":1,"la1":30.2991,"la2":30.254,"lo1":-89.0895,"lo2":-89.0444,"dy":0.0017,"dx":0.0017,"nx":28,"ny":28,"refTime":"2024-05-08T09:00:00:Z","depth":0,"parameterNumber":3,"parameterNumberName":"V-component_of_WINDS"},"data":[0,0,0,0,0,0,0,0,0,0,0,0,0,0,0,0,0,0,0,0,0,0,0,0,0,0,0,0,0,0,0,0,0,0,0,0,0,0,0,0,0,0,0,0,0,0,0,0,0,0,0,0,0,0,0,0,0,0,4.3033,4.3034,0,4.3172,4.3174,4.3175,4.3164,4.3162,4.316,4.3158,4.3294,4.3299,4.3304,0,0,0,0,0,0,0,0,0,0,0,0,0,4.275,4.2755,4.3033,4.3035,4.3036,4.3172,4.3174,4.3176,4.3165,4.3162,4.316,4.3157,4.3292,4.3298,4.3305,0,0,0,0,0,0,0,0,0,0,0,0,0,4.2879,4.2757,4.3032,4.3047,4.305,4.3171,4.3174,4.3176,4.3165,4.3162,4.3159,4.3156,4.329,4.3298,4.3306,4.3419,0,0,4.3331,4.3335,0,0,0,0,0,0,0,0,4.2872,4.2889,4.3043,4.3047,4.305,4.3148,4.3124,4.3257,4.3166,4.3121,4.3158,4.3155,4.3247,4.3259,4.3291,4.3425,4.3431,4.3332,4.3337,4.3341,4.3343,0,0,0,0,0,0,0,4.2863,4.2883,4.3088,4.3046,4.305,4.3045,4.306,4.3149,4.32,4.3125,4.3125,4.3142,4.3248,4.3283,4.3294,4.3433,4.3332,4.3339,4.3344,4.3347,4.3665,4.3669,0,0,0,0,0,0,4.2852,4.2876,4.3083,4.3092,4.2952,4.3052,4.3069,4.3119,4.3199,4.3208,4.3144,4.3141,4.3271,4.3285,4.3299,4.3437,4.334,4.3348,4.3353,4.3662,4.3666,4.367,0,0,0,0,0,0,4.2846,4.287,4.3078,4.2984,4.301,4.306,4.3117,4.3124,4.3159,4.3213,4.3221,4.3171,4.3269,4.3288,4.339,4.3441,4.3352,4.336,4.3658,4.3663,4.3668,4.3713,0,0,0,0,0,0,4.2838,4.2868,4.2914,4.2985,4.3015,4.3168,4.312,4.3129,4.3174,4.3171,4.3241,4.325,4.3268,4.3377,4.3398,4.3451,4.3366,4.3654,4.366,4.3666,4.3707,4.3719,4.3729,0,0,0,0,0,4.2827,4.2919,4.2916,4.2941,4.3074,4.3171,4.3188,4.321,4.3179,4.3223,4.3258,4.3247,4.3432,4.3388,4.3411,4.3467,4.365,4.3658,4.3666,4.3702,4.3717,4.3729,0,0,0,0,0,0,4.285,4.2929,4.2926,4.3045,4.3102,4.3169,4.3227,4.3224,4.329,4.3284,4.3305,4.3321,4.3423,4.3455,4.3405,4.358,4.3537,4.355,4.3556,4.3571,4.3581,4.3572,4.3373,0,0,0,0,0,4.2869,4.2945,4.3008,4.3106,4.3135,4.3176,4.322,4.3231,4.329,4.3314,4.3356,4.3411,4.3482,4.3528,4.3595,4.3711,4.3725,4.3761,4.3772,4.3781,4.3792,4.3854,4.387,4.3696,4.3696,4.3695,0,0,4.2909,4.2961,4.3007,4.3112,4.3158,4.3233,4.3197,4.3278,4.3333,4.3325,4.3425,4.3457,4.352,4.363,4.368,4.366,4.3843,4.3791,4.3797,4.3804,4.3864,4.388,4.3895,4.3701,4.37,4.3699,0,0,4.302,4.3068,4.3155,4.3201,4.3272,4.3298,4.3319,4.3387,4.3409,4.351,4.3505,4.357,4.3691,4.3736,4.3775,4.3902,4.3894,4.3923,4.3981,4.4042,4.4055,4.4068,4.4113,4.4128,4.3934,4.3934,4.3934,0,4.306,4.3176,4.3199,4.3282,4.3327,4.3325,4.3412,4.3455,4.3543,4.3573,4.3549,4.3701,4.3744,4.3863,4.3894,4.3926,4.3948,4.3916,4.4052,4.4065,4.4076,4.4119,4.4136,4.3937,4.3936,4.3936,4.3936,0,4.3221,4.3301,4.3362,4.345,4.3502,4.3586,4.3619,4.3669,4.3675,4.3703,4.3805,4.3856,4.3933,4.3962,4.3969,4.4082,4.4067,4.4048,4.4004,4.4096,4.4136,4.4153,4.3941,4.394,4.3939,4.3938,0,0,4.3351,4.3451,4.3473,4.3512,4.3589,4.365,4.3732,4.3811,4.3853,4.3912,4.3981,4.4084,4.4066,4.411,4.4121,4.4174,4.427,4.4147,4.4149,4.4168,4.4398,4.4412,4.4431,4.4265,4.4269,4.4271,4.4392,0,4.347,4.3621,4.3643,4.3774,4.3847,4.3846,4.3917,4.3971,4.3999,4.4063,4.4092,4.4165,4.4136,4.4162,4.4215,4.4248,4.4317,4.4239,4.4328,4.4331,4.4313,4.4453,4.4469,4.4581,4.4408,4.4411,4.4413,0,4.363,4.3697,4.3836,4.3902,4.3934,4.3998,4.4071,4.4133,4.4193,4.4209,4.4258,4.4262,4.4345,4.4298,4.4412,4.4358,4.4395,4.4417,4.4422,4.4431,4.4378,4.4466,4.4617,4.4634,4.4438,4.4436,4.4434,0,4.3711,4.3835,4.3934,4.3968,4.4048,4.4093,4.4128,4.4185,4.423,4.4293,4.4322,4.4392,4.4431,4.4484,4.4506,4.447,4.4618,4.4573,4.4633,4.4632,4.4665,4.4662,4.4824,4.4688,4.4688,4.4687,4.4687,0,4.3842,4.3927,4.3972,4.4033,4.4128,4.4151,4.4243,4.4276,4.4326,4.4391,4.4393,4.4453,4.4479,4.4543,4.456,4.4651,4.4668,4.4682,4.4686,4.4683,4.4681,4.4708,4.4701,4.4692,4.4691,4.469,4.4689,0,4.3949,4.3983,4.4091,4.4158,4.4177,4.4243,4.4299,4.4357,4.4384,4.4467,4.4487,4.4529,4.4604,4.4631,4.4722,4.4734,4.4839,4.4836,4.482,4.4821,4.4879,4.4873,4.5064,4.509,4.4936,4.4938,4.4939,0,4.4031,4.4096,4.4171,4.4216,4.4253,4.4326,4.4372,4.4397,4.4445,4.4517,4.4566,4.4641,4.4703,4.4823,4.486,4.4929,4.4927,4.4989,4.4938,4.4932,4.4928,4.4924,4.4931,4.4999,4.5001,4.5002,4.5003,0,4.4172,4.4185,4.4254,4.4329,4.4385,4.4445,4.4502,4.4538,4.457,4.4624,4.4702,4.475,4.4844,4.4918,4.4989,4.5022,4.5018,4.5019,4.5036,4.5034,4.5022,4.5029,4.4847,4.5015,4.5014,4.5013,4.5012,4.5012,4.4269,4.4327,4.4389,4.4465,4.4511,4.4564,4.4622,4.4657,4.4724,4.4804,4.4813,4.4897,4.4952,4.5047,4.5083,4.5147,4.513,4.5155,4.5162,4.5168,4.5172,4.5012,4.516,4.516,4.5159,4.5159,4.5159,0,4.441,4.445,4.452,4.4601,4.466,4.4653,4.4716,4.4765,4.484,4.4894,4.4955,4.5044,4.5116,4.5158,4.5229,4.5272,4.5272,4.529,4.5287,4.5295,4.5183,4.5161,4.5289,4.5289,4.5289,4.5289,4.5289,4.5289,4.4491,4.4589,4.461,4.4729,4.4768,4.4852,4.4888,4.4937,4.498,4.508,4.5141,4.5168,4.5217,4.5292,4.5356,4.5366,4.5392,4.5412,4.5421,4.5316,4.5303,4.529,4.5269,4.5418,4.5418,4.5527,4.5528,4.5529]}]]